Location: Unspecified
(0.0000°N, 0.0000°E)
Time: 17:21:49
(UTC+00:00)

deb Delta 126 - Pass Details

Date: 14 February 2026
Orbit: 1485 x 1545 km, 102.1° (Epoch: 6 March)

Event Time Altitude Azimuth Distance (km) Brightness Sun altitude
Rises 03:05:04 0° 20° (NNE) 4,669 ? -45.7°
Enters shadow 03:06:29 - 21° (NNE) 4,178 ? -45.4°
Exits shadow 03:22:21 23° 188° (S) 2,747 ? -41.6°
Drops below altitude 10° 03:25:03 10° 190° (S) 3,649 ? -41.0°
Sets 03:27:51 0° 192° (SSW) 4,625 ? -40.3°
